Time,TemperatureF,DewpointF,PressureIn,WindDirection,WindDirectionDegrees,WindSpeedMPH,WindSpeedGustMPH,Humidity,HourlyPrecipIn,Conditions,Clouds,dailyrainin,SoftwareType,DateUTC
2013-07-12 00:02:00,77.0,72.0,29.90,WSW,256,0.0,0.0,86,0.00,,,0.22,,2013-07-12 05:02:00,
2013-07-12 00:11:00,77.0,72.0,29.91,WSW,255,0.0,1.0,85,0.00,,,0.22,,2013-07-12 05:11:00,
2013-07-12 00:22:00,77.0,72.0,29.91,WSW,255,0.0,0.0,86,0.00,,,0.22,,2013-07-12 05:22:00,
2013-07-12 00:32:00,77.0,72.0,29.91,WSW,255,0.0,0.0,86,0.00,,,0.22,,2013-07-12 05:32:00,
2013-07-12 00:43:00,77.0,73.0,29.91,WSW,255,0.0,0.0,87,0.00,,,0.22,,2013-07-12 05:43:00,
2013-07-12 00:53:00,77.0,73.0,29.91,WSW,255,0.0,0.0,87,0.00,,,0.22,,2013-07-12 05:53:00,
2013-07-12 01:01:00,77.0,73.0,29.91,WSW,255,0.0,0.0,87,0.00,,,0.22,,2013-07-12 06:01:00,
2013-07-12 01:11:00,76.0,72.0,29.91,WSW,255,0.0,0.0,87,0.00,,,0.22,,2013-07-12 06:11:00,
2013-07-12 01:22:00,76.0,72.0,29.91,WSW,255,0.0,0.0,88,0.00,,,0.22,,2013-07-12 06:22:00,
2013-07-12 01:32:00,76.0,72.0,29.91,WSW,255,0.0,0.0,88,0.00,,,0.22,,2013-07-12 06:32:00,
2013-07-12 01:42:00,76.0,73.0,29.90,WSW,255,0.0,0.0,89,0.00,,,0.22,,2013-07-12 06:42:00,
2013-07-12 01:52:00,76.0,73.0,29.90,WSW,255,0.0,0.0,90,0.00,,,0.22,,2013-07-12 06:52:00,
2013-07-12 02:02:00,76.0,73.0,29.90,WSW,255,0.0,0.0,90,0.00,,,0.22,,2013-07-12 07:02:00,
2013-07-12 02:12:00,76.0,73.0,29.90,WSW,245,0.0,0.0,89,0.00,,,0.22,,2013-07-12 07:12:00,
2013-07-12 02:22:00,76.0,72.0,29.90,WNW,293,0.0,0.0,87,0.00,,,0.22,,2013-07-12 07:22:00,
2013-07-12 02:32:00,76.0,72.0,29.90,WNW,293,0.0,0.0,87,0.00,,,0.22,,2013-07-12 07:32:00,
2013-07-12 02:43:00,76.0,72.0,29.90,WNW,294,0.0,0.0,86,0.00,,,0.22,,2013-07-12 07:43:00,
2013-07-12 02:52:00,75.0,71.0,29.90,WNW,294,0.0,0.0,87,0.00,,,0.22,,2013-07-12 07:52:00,
2013-07-12 03:01:00,75.0,71.0,29.90,WNW,294,0.0,0.0,87,0.00,,,0.22,,2013-07-12 08:01:00,
2013-07-12 03:11:00,75.0,71.0,29.91,WNW,293,0.0,0.0,88,0.00,,,0.22,,2013-07-12 08:11:00,
2013-07-12 03:21:00,75.0,72.0,29.90,WNW,293,0.0,0.0,89,0.00,,,0.22,,2013-07-12 08:21:00,
2013-07-12 03:32:00,75.0,72.0,29.90,WNW,293,0.0,0.0,89,0.00,,,0.22,,2013-07-12 08:32:00,
2013-07-12 03:42:00,75.0,72.0,29.90,WNW,293,0.0,0.0,89,0.00,,,0.22,,2013-07-12 08:42:00,
2013-07-12 03:53:00,75.0,72.0,29.90,WNW,293,0.0,0.0,90,0.00,,,0.22,,2013-07-12 08:53:00,
2013-07-12 04:02:00,75.0,72.0,29.90,WNW,293,0.0,0.0,90,0.00,,,0.22,,2013-07-12 09:02:00,
2013-07-12 04:12:00,75.0,72.0,29.89,WNW,294,0.0,0.0,90,0.00,,,0.22,,2013-07-12 09:12:00,
2013-07-12 04:22:00,75.0,72.0,29.90,WNW,293,0.0,0.0,90,0.00,,,0.22,,2013-07-12 09:22:00,
2013-07-12 04:32:00,75.0,72.0,29.90,WNW,293,0.0,0.0,90,0.00,,,0.22,,2013-07-12 09:32:00,
2013-07-12 04:42:00,74.0,71.0,29.90,WNW,293,0.0,0.0,90,0.00,,,0.22,,2013-07-12 09:42:00,
2013-07-12 04:52:00,74.0,71.0,29.90,WNW,293,0.0,0.0,90,0.00,,,0.22,,2013-07-12 09:52:00,
2013-07-12 05:01:00,74.0,71.0,29.90,WNW,293,0.0,0.0,90,0.00,,,0.22,,2013-07-12 10:01:00,
2013-07-12 05:11:00,74.0,71.0,29.90,WNW,293,0.0,0.0,91,0.00,,,0.22,,2013-07-12 10:11:00,
2013-07-12 05:22:00,74.0,71.0,29.90,WNW,293,0.0,0.0,91,0.00,,,0.22,,2013-07-12 10:22:00,
2013-07-12 05:33:00,74.0,71.0,29.90,WNW,293,0.0,0.0,91,0.00,,,0.22,,2013-07-12 10:33:00,
2013-07-12 05:42:00,74.0,71.0,29.91,West,259,0.0,1.0,91,0.00,,,0.22,,2013-07-12 10:42:00,
2013-07-12 05:52:00,74.0,71.0,29.91,West,259,0.0,1.0,91,0.00,,,0.22,,2013-07-12 10:52:00,
2013-07-12 06:02:00,74.0,71.0,29.91,West,259,0.0,1.0,91,0.00,,,0.22,,2013-07-12 11:02:00,
2013-07-12 06:11:00,74.0,71.0,29.91,West,264,0.0,0.0,90,0.00,,,0.22,,2013-07-12 11:11:00,
2013-07-12 06:22:00,74.0,71.0,29.91,West,264,0.0,0.0,90,0.00,,,0.22,,2013-07-12 11:22:00,
2013-07-12 06:32:00,74.0,71.0,29.91,West,264,0.0,0.0,90,0.00,,,0.22,,2013-07-12 11:32:00,
2013-07-12 06:43:00,74.0,71.0,29.92,WSW,249,0.0,0.0,90,0.00,,,0.22,,2013-07-12 11:43:00,
2013-07-12 06:52:00,74.0,71.0,29.92,WSW,256,0.0,0.0,89,0.00,,,0.22,,2013-07-12 11:52:00,
2013-07-12 07:01:00,74.0,71.0,29.92,WSW,256,0.0,0.0,89,0.00,,,0.22,,2013-07-12 12:01:00,
2013-07-12 07:11:00,74.0,71.0,29.93,WSW,240,0.0,0.0,89,0.00,,,0.22,,2013-07-12 12:11:00,
2013-07-12 07:22:00,75.0,71.0,29.93,West,263,0.0,1.0,88,0.00,,,0.22,,2013-07-12 12:22:00,
2013-07-12 07:32:00,75.0,71.0,29.93,West,263,0.0,1.0,88,0.00,,,0.22,,2013-07-12 12:32:00,
2013-07-12 07:43:00,76.0,72.0,29.94,West,263,0.0,1.0,88,0.00,,,0.22,,2013-07-12 12:43:00,
2013-07-12 07:52:00,77.0,72.0,29.94,West,264,0.0,2.0,85,0.00,,,0.22,,2013-07-12 12:52:00,
2013-07-12 08:01:00,77.0,72.0,29.94,West,264,0.0,2.0,85,0.00,,,0.22,,2013-07-12 13:01:00,
2013-07-12 08:12:00,78.0,72.0,29.95,West,266,0.0,3.0,83,0.00,,,0.22,,2013-07-12 13:12:00,
2013-07-12 08:22:00,79.0,72.0,29.95,West,264,0.0,3.0,80,0.00,,,0.22,,2013-07-12 13:22:00,
2013-07-12 08:32:00,79.0,72.0,29.95,West,264,0.0,3.0,80,0.00,,,0.22,,2013-07-12 13:32:00,
2013-07-12 08:43:00,80.0,72.0,29.95,West,270,1.0,6.0,78,0.00,,,0.22,,2013-07-12 13:43:00,
2013-07-12 08:53:00,81.0,73.0,29.96,SW,233,1.0,5.0,77,0.00,,,0.22,,2013-07-12 13:53:00,
2013-07-12 09:02:00,81.0,73.0,29.96,SW,233,1.0,5.0,77,0.00,,,0.22,,2013-07-12 14:02:00,
2013-07-12 09:11:00,82.0,73.0,29.96,WSW,253,1.0,4.0,75,0.00,,,0.22,,2013-07-12 14:11:00,
2013-07-12 09:22:00,82.0,72.0,29.96,West,259,0.0,4.0,73,0.00,,,0.22,,2013-07-12 14:22:00,
2013-07-12 09:32:00,82.0,72.0,29.96,West,259,0.0,4.0,73,0.00,,,0.22,,2013-07-12 14:32:00,
2013-07-12 09:43:00,83.0,73.0,29.96,WSW,242,1.0,6.0,72,0.00,,,0.22,,2013-07-12 14:43:00,
2013-07-12 09:53:00,83.0,73.0,29.96,West,267,1.0,6.0,71,0.00,,,0.22,,2013-07-12 14:53:00,
2013-07-12 10:01:00,83.0,73.0,29.96,West,267,1.0,6.0,71,0.00,,,0.22,,2013-07-12 15:01:00,
2013-07-12 10:11:00,84.0,73.0,29.96,SW,230,2.0,6.0,70,0.00,,,0.22,,2013-07-12 15:11:00,
2013-07-12 10:22:00,85.0,74.0,29.96,West,266,0.0,3.0,70,0.00,,,0.22,,2013-07-12 15:22:00,
2013-07-12 10:33:00,85.0,74.0,29.96,West,266,0.0,3.0,70,0.00,,,0.22,,2013-07-12 15:33:00,
2013-07-12 10:43:00,86.0,74.0,29.96,SW,228,1.0,6.0,67,0.00,,,0.22,,2013-07-12 15:43:00,
2013-07-12 10:52:00,87.0,74.0,29.96,SW,234,1.0,4.0,65,0.00,,,0.22,,2013-07-12 15:52:00,
2013-07-12 11:01:00,87.0,74.0,29.96,SW,234,1.0,4.0,65,0.00,,,0.22,,2013-07-12 16:01:00,
2013-07-12 11:11:00,88.0,73.0,29.96,WSW,255,0.0,3.0,61,0.00,,,0.22,,2013-07-12 16:11:00,
2013-07-12 11:22:00,90.0,74.0,29.96,NNE,15,1.0,4.0,60,0.00,,,0.22,,2013-07-12 16:22:00,
2013-07-12 11:32:00,90.0,74.0,29.96,NNE,15,1.0,4.0,60,0.00,,,0.22,,2013-07-12 16:32:00,
2013-07-12 11:43:00,89.0,73.0,29.96,West,266,0.0,6.0,60,0.00,,,0.22,,2013-07-12 16:43:00,
2013-07-12 11:55:00,90.0,73.0,29.96,WNW,288,0.0,5.0,58,0.00,,,0.22,,2013-07-12 16:55:00,
2013-07-12 12:05:00,90.0,73.0,29.96,WNW,288,0.0,5.0,58,0.00,,,0.22,,2013-07-12 17:05:00,
2013-07-12 12:13:00,91.0,73.0,29.95,NE,47,2.0,5.0,55,0.00,,,0.22,,2013-07-12 17:13:00,
2013-07-12 12:23:00,92.0,73.0,29.95,WSW,257,1.0,4.0,54,0.00,,,0.22,,2013-07-12 17:23:00,
2013-07-12 12:35:00,92.0,73.0,29.95,WSW,257,1.0,4.0,54,0.00,,,0.22,,2013-07-12 17:35:00,
2013-07-12 12:44:00,92.0,72.0,29.94,West,274,3.0,8.0,53,0.00,,,0.22,,2013-07-12 17:44:00,
2013-07-12 12:53:00,93.0,72.0,29.94,WSW,256,1.0,8.0,51,0.00,,,0.22,,2013-07-12 17:53:00,
2013-07-12 13:14:00,94.0,72.0,29.94,West,264,2.0,9.0,49,0.00,,,0.22,,2013-07-12 18:14:00,
2013-07-12 13:25:00,95.0,72.0,29.93,SW,232,2.0,8.0,48,0.00,,,0.22,,2013-07-12 18:25:00,
2013-07-12 13:34:00,95.0,72.0,29.93,SW,232,2.0,8.0,48,0.00,,,0.22,,2013-07-12 18:34:00,
2013-07-12 13:53:00,96.0,74.0,29.93,WSW,256,2.0,6.0,49,0.00,,,0.22,,2013-07-12 18:53:00,
2013-07-12 14:04:00,96.0,74.0,29.93,WSW,256,2.0,6.0,49,0.00,,,0.22,,2013-07-12 19:04:00,
2013-07-12 14:14:00,97.0,72.0,29.92,SW,236,1.0,5.0,45,0.00,,,0.22,,2013-07-12 19:14:00,
2013-07-12 14:22:00,97.0,71.0,29.92,WSW,252,1.0,4.0,44,0.00,,,0.22,,2013-07-12 19:22:00,
2013-07-12 14:32:00,97.0,71.0,29.92,WSW,252,1.0,4.0,44,0.00,,,0.22,,2013-07-12 19:32:00,
2013-07-12 14:44:00,97.0,71.0,29.92,WSW,245,1.0,6.0,44,0.00,,,0.22,,2013-07-12 19:44:00,
2013-07-12 14:54:00,97.0,71.0,29.91,SW,224,4.0,8.0,43,0.00,,,0.22,,2013-07-12 19:54:00,
2013-07-12 15:02:00,97.0,71.0,29.91,SW,224,4.0,8.0,43,0.00,,,0.22,,2013-07-12 20:02:00,
2013-07-12 15:13:00,99.0,72.0,29.91,SW,223,1.0,4.0,42,0.00,,,0.22,,2013-07-12 20:13:00,
2013-07-12 15:23:00,99.0,70.0,29.90,NNE,33,1.0,6.0,40,0.00,,,0.06,,2013-07-12 20:23:00,
2013-07-12 15:33:00,99.0,70.0,29.90,NNE,33,1.0,6.0,40,0.00,,,0.06,,2013-07-12 20:33:00,
2013-07-12 15:43:00,99.0,70.0,29.90,SE,146,2.0,7.0,39,0.00,,,0.06,,2013-07-12 20:43:00,
2013-07-12 15:54:00,99.0,70.0,29.90,WSW,238,0.0,8.0,39,0.00,,,0.06,,2013-07-12 20:54:00,
2013-07-12 16:02:00,99.0,70.0,29.90,WSW,238,0.0,8.0,39,0.00,,,0.06,,2013-07-12 21:02:00,
2013-07-12 16:14:00,100.0,70.0,29.89,WSW,256,2.0,7.0,38,0.00,,,0.06,,2013-07-12 21:14:00,
2013-07-12 16:24:00,99.0,70.0,29.89,West,262,1.0,10.0,39,0.00,,,0.06,,2013-07-12 21:24:00,
2013-07-12 16:33:00,99.0,70.0,29.89,West,262,1.0,10.0,39,0.00,,,0.06,,2013-07-12 21:33:00,
2013-07-12 16:45:00,99.0,70.0,29.88,WSW,249,0.0,5.0,39,0.00,,,0.06,,2013-07-12 21:45:00,
2013-07-12 17:02:00,100.0,70.0,29.88,WNW,285,1.0,5.0,38,0.00,,,0.06,,2013-07-12 22:02:00,
2013-07-12 17:15:00,100.0,69.0,29.88,NNW,347,0.0,6.0,37,0.00,,,0.06,,2013-07-12 22:15:00,
2013-07-12 17:22:00,100.0,68.0,29.88,WSW,246,3.0,10.0,36,0.00,,,0.06,,2013-07-12 22:22:00,
2013-07-12 17:33:00,100.0,68.0,29.88,WSW,246,3.0,10.0,36,0.00,,,0.06,,2013-07-12 22:33:00,
2013-07-12 17:44:00,100.0,67.0,29.88,East,84,0.0,5.0,35,0.00,,,0.06,,2013-07-12 22:44:00,
2013-07-12 17:53:00,100.0,67.0,29.87,West,270,1.0,4.0,34,0.00,,,0.06,,2013-07-12 22:53:00,
2013-07-12 18:03:00,100.0,67.0,29.87,West,270,1.0,4.0,34,0.00,,,0.06,,2013-07-12 23:03:00,
2013-07-12 18:12:00,100.0,67.0,29.87,WNW,291,1.0,4.0,35,0.00,,,0.06,,2013-07-12 23:12:00,
2013-07-12 18:22:00,99.0,68.0,29.86,West,259,0.0,5.0,37,0.00,,,0.01,,2013-07-12 23:22:00,
2013-07-12 18:33:00,99.0,68.0,29.86,West,259,0.0,5.0,37,0.00,,,0.01,,2013-07-12 23:33:00,
2013-07-12 18:43:00,99.0,68.0,29.85,SW,235,2.0,5.0,37,0.00,,,0.01,,2013-07-12 23:43:00,
2013-07-12 18:53:00,98.0,67.0,29.86,West,266,2.0,7.0,37,0.00,,,0.01,,2013-07-12 23:53:00,
2013-07-12 19:04:00,98.0,67.0,29.86,West,266,2.0,7.0,37,0.00,,,0.01,,2013-07-13 00:04:00,
2013-07-12 19:15:00,97.0,67.0,29.85,West,275,1.0,7.0,38,0.00,,,0.01,,2013-07-13 00:15:00,
2013-07-12 19:24:00,97.0,68.0,29.85,WNW,300,1.0,6.0,39,0.00,,,0.00,,2013-07-13 00:24:00,
2013-07-12 19:32:00,97.0,68.0,29.85,WNW,300,1.0,6.0,39,0.00,,,0.00,,2013-07-13 00:32:00,
2013-07-12 19:45:00,96.0,68.0,29.86,WSW,246,1.0,5.0,40,0.00,,,0.00,,2013-07-13 00:45:00,
2013-07-12 19:54:00,96.0,68.0,29.86,WSW,246,1.0,5.0,40,0.00,,,0.00,,2013-07-13 00:54:00,
2013-07-12 20:02:00,96.0,70.0,29.86,West,266,1.0,5.0,43,0.00,,,0.00,,2013-07-13 01:02:00,
2013-07-12 20:12:00,96.0,70.0,29.86,West,266,1.0,5.0,43,0.00,,,0.00,,2013-07-13 01:12:00,
2013-07-12 20:24:00,95.0,70.0,29.86,WSW,256,1.0,6.0,44,0.00,,,0.00,,2013-07-13 01:24:00,
2013-07-12 20:36:00,95.0,70.0,29.86,WSW,256,1.0,6.0,44,0.00,,,0.00,,2013-07-13 01:36:00,
2013-07-12 20:45:00,95.0,70.0,29.86,WSW,256,1.0,6.0,44,0.00,,,0.00,,2013-07-13 01:45:00,
2013-07-12 20:56:00,95.0,70.0,29.86,WSW,256,1.0,6.0,44,0.00,,,0.00,,2013-07-13 01:56:00,
2013-07-12 21:04:00,95.0,70.0,29.86,WSW,256,1.0,6.0,44,0.00,,,0.00,,2013-07-13 02:04:00,
2013-07-12 21:26:00,91.0,70.0,29.87,WSW,257,0.0,3.0,51,0.00,,,0.00,,2013-07-13 02:26:00,
2013-07-12 21:38:00,91.0,70.0,29.87,WSW,257,0.0,3.0,51,0.00,,,0.00,,2013-07-13 02:38:00,
2013-07-12 21:55:00,91.0,71.0,29.88,WSW,245,0.0,4.0,52,0.00,,,0.00,,2013-07-13 02:55:00,
2013-07-12 22:04:00,91.0,71.0,29.88,WSW,245,0.0,4.0,52,0.00,,,0.00,,2013-07-13 03:04:00,
2013-07-12 22:12:00,90.0,70.0,29.88,WSW,250,0.0,4.0,52,0.00,,,0.00,,2013-07-13 03:12:00,
2013-07-12 22:24:00,90.0,70.0,29.88,West,271,0.0,4.0,52,0.00,,,0.00,,2013-07-13 03:24:00,
2013-07-12 22:35:00,90.0,70.0,29.88,West,271,0.0,4.0,52,0.00,,,0.00,,2013-07-13 03:35:00,
2013-07-12 22:44:00,89.0,70.0,29.88,WNW,283,0.0,2.0,53,0.00,,,0.00,,2013-07-13 03:44:00,
2013-07-12 22:54:00,89.0,70.0,29.89,West,267,0.0,3.0,54,0.00,,,0.00,,2013-07-13 03:54:00,
2013-07-12 23:01:00,89.0,70.0,29.89,West,267,0.0,3.0,54,0.00,,,0.00,,2013-07-13 04:01:00,
2013-07-12 23:11:00,89.0,70.0,29.89,WSW,252,2.0,6.0,54,0.00,,,0.00,,2013-07-13 04:11:00,
2013-07-12 23:22:00,88.0,70.0,29.90,WSW,250,1.0,7.0,55,0.00,,,0.00,,2013-07-13 04:22:00,
2013-07-12 23:32:00,88.0,70.0,29.90,WSW,250,1.0,7.0,55,0.00,,,0.00,,2013-07-13 04:32:00,
2013-07-12 23:43:00,88.0,70.0,29.91,WSW,256,2.0,9.0,56,0.00,,,0.00,,2013-07-13 04:43:00,